P/2014 U4 ( PanSTARRS )

Japanese version
Home page
Updated on June 11, 2016

---------------------------------------------------------------------

* Profile

Discovery Date October 28, 2014
Magnitude 20.7 mag
Discoverer Pan-STARRS 1 telescope (Haleakala)

* Pictures

* Orbital Elements

Epoch 2014 Aug. 11.0 TT = JDT 2456880.5
T 2014 Aug. 3.92209 TT                                  MPCW
q   1.8433745            (2000.0)            P               Q
n   0.15148324     Peri.  347.72764     +0.99971076     +0.00526693
a   3.4851890      Node    12.04469     +0.00707220     +0.86820408
e   0.4710833      Incl.    6.45678     -0.02298670     +0.49617933
P   6.51
From 61 observations 2014 Sept. 2-Nov. 17, mean residual 0".5.

* Magnitudes Graph

        m1 = 17.0 + 5 log d + 10.0 log r

---------------------------------------------------------------------

The orbital elements are published on M.P.E.C. 2014-X44.
The magnitudes graphs are made with Comet for Windows.

---------------------------------------------------------------------

Copyright(C) Seiichi Yoshida (comet@aerith.net). All rights reserved.